Regional Weather Roundup
Issued by NWS

Home | Current Version | Previous Version | Graphics & Text | Print | Product List | Glossary On
Versions: 1 2 3 4 5 6 7 8 9 10 11 12 13 14 15 16 17 18 19 20 21 22 23 24 25 26 27 28 29 30 31 32 33 34 35 36 37 38 39 40 41 42 43 44 45 46 47 48 49 50
206
ASUS44 KJAN 010703
RWRMS

MISSISSIPPI HOURLY WEATHER ROUNDUP
NATIONAL WEATHER SERVICE JACKSON MS
200 AM CDT MON SEP 01 2014

NOTE: "FAIR: INDICATES FEW OR NO CLOUDS BELOW 12,000 FEET WITH NO
SIGNIFICANT WEATHER AND/OR OBSTRUCTIONS TO VISIBILITY.

MSZ001>002-007>008-010>013-018>021-025>028-034>036-010800-
NORTHWEST MISSISSIPPI

CITY           SKY/WX    TMP DP  RH WIND       PRES   REMARKS
CLARKSDALE     FAIR      75  75 100 CALM      30.00R
CLEVELAND      FAIR      76  76  99 S7        29.99R
GREENWOOD      PTCLDY    77  74  90 S7        30.01R
GREENVILLE     CLEAR     76  74  93 S5        29.99R
GRENADA        FAIR      73  72  94 S5        30.01S
OLIVE BRANCH   CLEAR     73 N/A N/A CALM      30.01S
OXFORD         FAIR      73  72  94 S3        30.03S
TUNICA         SUNNY     73  72  94 S3        30.00S
$$

MSZ003>006-009-014>017-022>024-029>033-037>039-010800-
NORTHEAST MISSISSIPPI

CITY           SKY/WX    TMP DP  RH WIND       PRES   REMARKS
BELMONT        FAIR      75  73  92 S7        30.04S
COLUMBUS AFB   PTCLDY    73  72  97 CALM      30.04S
CORINTH        FOG       73  70  88 CALM      30.02R VSB 1/4
GOLDN TRIANGLE PTCLDY    73  70  88 S3        30.04F
STARKVILLE     FAIR      72  72 100 CALM      30.04S
TUPELO         CLEAR     76  73  91 S9        30.02S
$$

MSZ040-058-010800-
CENTRAL MISSISSIPPI

CITY           SKY/WX    TMP DP  RH WIND       PRES   REMARKS
JACKSON INTL   CLEAR     76  73  91 S7        30.04S
JACKSON HAWKNS CLEAR     77  72  84 S8        30.04S
MERIDIAN KEY   CLEAR     73  71  93 SW3       30.05S
MERIDIAN NAS   CLEAR     74  71  91 CALM      30.05S
RAYMOND        FAIR      75  72  88 SE5       30.03S
VICKSBURG      CLEAR     77  73  87 S8        30.01S
$$

MSZ059>079-010800-
SOUTH MISSISSIPPI

CITY           SKY/WX    TMP DP  RH WIND       PRES   REMARKS
BROOKHAVEN     FAIR      75  75 100 S6        30.05F
HATTIESBURG    CLEAR     75  73  93 CALM      30.05F
MCCOMB         CLEAR     75  73  93 SE6       30.04F
NATCHEZ        CLEAR     75  72  88 S6        30.03S
PINE BELT      CLEAR     72  68  88 CALM      30.06F
$$

MSZ080>082-010800-
COASTAL MISSISSIPPI

CITY           SKY/WX    TMP DP  RH WIND       PRES   REMARKS
BILOXI         CLEAR     84  76  77 S8        30.03F HX  93
PASCAGOULA     CLEAR     73  73 100 CALM      30.04F FOG
GULFPORT       PTCLDY    83  76  79 SE13      30.02F HX  91
$$



USA.gov is the U.S. government's official web portal to all federal, state and local government web resources and services.